Time,TemperatureF,DewpointF,PressureIn,WindDirection,WindDirectionDegrees,WindSpeedMPH,WindSpeedGustMPH,Humidity,HourlyPrecipIn,Conditions,Clouds,dailyrainin,SolarRadiationWatts/m^2,SoftwareType,DateUTC
2013-03-09 00:00:00,32.8,30.5,30.03,South,180,10.0,10.0,91,0.01,,SKC,0.00,0.00,VWS V14.00,2013-03-09 06:00:00,
2013-03-09 00:05:00,32.7,30.4,30.02,SSE,162,5.0,12.0,91,0.01,,SKC,0.00,0.00,VWS V14.00,2013-03-09 06:05:00,
2013-03-09 00:10:00,32.7,30.6,30.02,SSW,201,11.0,14.0,92,0.02,,SKC,0.01,0.00,VWS V14.00,2013-03-09 06:10:00,
2013-03-09 00:15:00,32.6,30.5,30.01,SSE,150,11.0,16.0,92,0.02,,SKC,0.01,0.00,VWS V14.00,2013-03-09 06:15:00,
2013-03-09 00:20:00,32.6,30.5,30.01,South,186,5.0,14.0,92,0.02,,SKC,0.01,0.00,VWS V14.00,2013-03-09 06:20:00,
2013-03-09 00:25:00,32.5,30.7,30.00,SSE,160,11.0,13.0,93,0.02,,SKC,0.01,0.00,VWS V14.00,2013-03-09 06:25:00,
2013-03-09 00:30:00,32.5,30.7,30.00,South,178,6.0,12.0,93,0.03,,SKC,0.02,0.00,VWS V14.00,2013-03-09 06:30:00,
2013-03-09 00:35:00,32.5,30.7,30.00,SSW,198,9.0,14.0,93,0.03,,SKC,0.02,0.00,VWS V14.00,2013-03-09 06:35:00,
2013-03-09 00:40:00,32.5,30.7,30.00,SSW,194,11.0,13.0,93,0.03,,SKC,0.02,0.00,VWS V14.00,2013-03-09 06:40:00,
2013-03-09 00:45:00,32.4,30.9,29.99,South,169,5.0,11.0,94,0.04,,SKC,0.03,0.00,VWS V14.00,2013-03-09 06:45:00,
2013-03-09 00:50:00,32.4,30.9,29.99,South,177,6.0,12.0,94,0.04,,SKC,0.03,0.00,VWS V14.00,2013-03-09 06:50:00,
2013-03-09 00:55:00,32.4,30.9,29.99,SSE,159,6.0,11.0,94,0.04,,SKC,0.03,0.00,VWS V14.00,2013-03-09 06:55:00,
2013-03-09 01:00:00,32.5,31.0,29.98,SSE,147,6.0,12.0,94,0.03,,SKC,0.03,0.00,VWS V14.00,2013-03-09 07:00:00,
2013-03-09 01:05:00,32.4,30.9,29.98,SSE,156,11.0,16.0,94,0.04,,SKC,0.04,0.00,VWS V14.00,2013-03-09 07:05:00,
2013-03-09 01:10:00,32.5,31.0,29.98,South,179,9.0,12.0,94,0.04,,SKC,0.04,0.00,VWS V14.00,2013-03-09 07:10:00,
2013-03-09 01:15:00,32.5,31.0,29.98,SSE,155,9.0,11.0,94,0.04,,SKC,0.05,0.00,VWS V14.00,2013-03-09 07:15:00,
2013-03-09 01:20:00,32.5,31.2,29.98,South,175,9.0,12.0,95,0.04,,SKC,0.05,0.00,VWS V14.00,2013-03-09 07:20:00,
2013-03-09 01:25:00,32.5,31.2,29.97,South,171,8.0,13.0,95,0.04,,SKC,0.05,0.00,VWS V14.00,2013-03-09 07:25:00,
2013-03-09 01:30:00,32.5,31.2,29.97,South,178,12.0,13.0,95,0.04,,SKC,0.05,0.00,VWS V14.00,2013-03-09 07:30:00,
2013-03-09 01:35:00,32.5,31.2,29.97,South,182,3.0,14.0,95,0.04,,SKC,0.06,0.00,VWS V14.00,2013-03-09 07:35:00,
2013-03-09 01:40:00,32.6,31.3,29.97,South,178,5.0,11.0,95,0.04,,SKC,0.06,0.00,VWS V14.00,2013-03-09 07:40:00,
2013-03-09 01:45:00,32.6,31.3,29.97,South,169,5.0,11.0,95,0.05,,SKC,0.07,0.00,VWS V14.00,2013-03-09 07:45:00,
2013-03-09 01:50:00,32.6,31.3,29.96,South,172,6.0,12.0,95,0.04,,SKC,0.07,0.00,VWS V14.00,2013-03-09 07:50:00,
2013-03-09 01:55:00,32.6,31.3,29.96,SSE,161,11.0,13.0,95,0.04,,SKC,0.07,0.00,VWS V14.00,2013-03-09 07:55:00,
2013-03-09 02:00:00,32.6,31.3,29.96,SSE,148,5.0,12.0,95,0.05,,SKC,0.08,0.00,VWS V14.00,2013-03-09 08:00:00,
2013-03-09 02:05:00,32.6,31.3,29.96,South,174,6.0,13.0,95,0.05,,SKC,0.08,0.00,VWS V14.00,2013-03-09 08:05:00,
2013-03-09 02:10:00,32.6,31.3,29.95,South,175,6.0,12.0,95,0.05,,SKC,0.09,0.00,VWS V14.00,2013-03-09 08:10:00,
2013-03-09 02:15:00,32.6,31.3,29.95,South,182,7.0,14.0,95,0.05,,SKC,0.09,0.00,VWS V14.00,2013-03-09 08:15:00,
2013-03-09 02:20:00,32.6,31.3,29.94,South,182,7.0,7.0,95,0.04,,SKC,0.09,0.00,VWS V14.00,2013-03-09 08:20:00,
2013-03-09 02:25:00,32.6,31.3,29.94,South,182,7.0,7.0,95,0.04,,SKC,0.09,0.00,VWS V14.00,2013-03-09 08:25:00,
2013-03-09 02:30:00,32.6,31.3,29.93,South,182,7.0,7.0,95,0.04,,SKC,0.09,0.00,VWS V14.00,2013-03-09 08:30:00,
2013-03-09 02:35:00,32.6,31.3,29.93,South,182,7.0,7.0,95,0.04,,SKC,0.09,0.00,VWS V14.00,2013-03-09 08:35:00,
2013-03-09 02:40:00,32.6,31.3,29.93,South,182,7.0,7.0,95,0.03,,SKC,0.09,0.00,VWS V14.00,2013-03-09 08:40:00,
2013-03-09 02:45:00,32.6,31.3,29.93,South,182,7.0,7.0,95,0.03,,SKC,0.09,0.00,VWS V14.00,2013-03-09 08:45:00,
2013-03-09 02:50:00,32.6,31.3,29.93,South,182,7.0,7.0,95,0.02,,SKC,0.09,0.00,VWS V14.00,2013-03-09 08:50:00,
2013-03-09 02:55:00,32.6,31.3,29.92,South,182,7.0,7.0,95,0.02,,SKC,0.09,0.00,VWS V14.00,2013-03-09 08:55:00,
2013-03-09 03:00:00,32.8,31.5,29.92,South,183,5.0,12.0,95,0.06,,SKC,0.13,0.00,VWS V14.00,2013-03-09 09:00:00,
2013-03-09 03:05:00,32.8,31.5,29.92,South,173,6.0,13.0,95,0.05,,SKC,0.13,0.00,VWS V14.00,2013-03-09 09:05:00,
2013-03-09 03:10:00,32.8,31.5,29.92,SSW,199,4.0,9.0,95,0.06,,SKC,0.14,0.00,VWS V14.00,2013-03-09 09:10:00,
2013-03-09 03:15:00,32.8,31.5,29.91,South,188,4.0,10.0,95,0.05,,SKC,0.14,0.00,VWS V14.00,2013-03-09 09:15:00,
2013-03-09 03:20:00,32.8,31.5,29.90,SSW,193,5.0,9.0,95,0.06,,SKC,0.15,0.00,VWS V14.00,2013-03-09 09:20:00,
2013-03-09 03:25:00,32.8,31.5,29.90,South,188,3.0,9.0,95,0.06,,SKC,0.15,0.00,VWS V14.00,2013-03-09 09:25:00,
2013-03-09 03:30:00,32.8,31.5,29.90,South,181,3.0,10.0,95,0.07,,SKC,0.16,0.00,VWS V14.00,2013-03-09 09:30:00,
2013-03-09 03:35:00,32.8,31.8,29.90,South,176,9.0,12.0,96,0.07,,SKC,0.16,0.00,VWS V14.00,2013-03-09 09:35:00,
2013-03-09 03:40:00,32.8,31.8,29.89,South,186,5.0,9.0,96,0.08,,SKC,0.17,0.00,VWS V14.00,2013-03-09 09:40:00,
2013-03-09 03:45:00,32.8,31.8,29.89,SSE,159,6.0,9.0,96,0.08,,SKC,0.17,0.00,VWS V14.00,2013-03-09 09:45:00,
2013-03-09 03:50:00,32.8,31.8,29.89,SSE,167,6.0,11.0,96,0.08,,SKC,0.17,0.00,VWS V14.00,2013-03-09 09:50:00,
2013-03-09 03:55:00,32.9,31.9,29.89,South,186,5.0,10.0,96,0.09,,SKC,0.18,0.00,VWS V14.00,2013-03-09 09:55:00,
2013-03-09 04:00:00,32.9,31.9,29.89,South,186,5.0,13.0,96,0.10,,SKC,0.19,0.00,VWS V14.00,2013-03-09 10:00:00,
2013-03-09 04:05:00,32.9,31.9,29.89,SSE,166,4.0,14.0,96,0.06,,SKC,0.19,0.00,VWS V14.00,2013-03-09 10:05:00,
2013-03-09 04:10:00,32.9,31.9,29.89,South,188,6.0,11.0,96,0.06,,SKC,0.19,0.00,VWS V14.00,2013-03-09 10:10:00,
2013-03-09 04:15:00,32.9,31.9,29.88,South,180,4.0,12.0,96,0.06,,SKC,0.20,0.00,VWS V14.00,2013-03-09 10:15:00,
2013-03-09 04:20:00,33.0,32.0,29.88,SSW,194,6.0,12.0,96,0.06,,SKC,0.20,0.00,VWS V14.00,2013-03-09 10:20:00,
2013-03-09 04:25:00,33.0,32.0,29.88,South,179,6.0,13.0,96,0.06,,SKC,0.21,0.00,VWS V14.00,2013-03-09 10:25:00,
2013-03-09 04:30:00,33.0,32.0,29.87,SSE,159,5.0,11.0,96,0.07,,SKC,0.22,0.00,VWS V14.00,2013-03-09 10:30:00,
2013-03-09 04:35:00,33.0,32.0,29.87,South,173,8.0,13.0,96,0.06,,SKC,0.22,0.00,VWS V14.00,2013-03-09 10:35:00,
2013-03-09 04:40:00,33.0,32.0,29.86,SSW,195,4.0,11.0,96,0.07,,SKC,0.23,0.00,VWS V14.00,2013-03-09 10:40:00,
2013-03-09 04:45:00,33.0,32.0,29.86,South,175,4.0,10.0,96,0.06,,SKC,0.23,0.00,VWS V14.00,2013-03-09 10:45:00,
2013-03-09 04:50:00,33.0,32.0,29.86,South,171,7.0,11.0,96,0.07,,SKC,0.24,0.00,VWS V14.00,2013-03-09 10:50:00,
2013-03-09 04:55:00,33.0,32.0,29.86,SSE,166,4.0,9.0,96,0.07,,SKC,0.24,0.00,VWS V14.00,2013-03-09 10:55:00,
2013-03-09 05:00:00,33.0,32.0,29.86,SSE,160,7.0,12.0,96,0.07,,SKC,0.25,0.00,VWS V14.00,2013-03-09 11:00:00,
2013-03-09 05:05:00,33.0,32.0,29.86,SSE,155,5.0,12.0,96,0.06,,SKC,0.25,0.00,VWS V14.00,2013-03-09 11:05:00,
2013-03-09 05:10:00,33.1,32.1,29.86,South,172,8.0,10.0,96,0.07,,SKC,0.26,0.00,VWS V14.00,2013-03-09 11:10:00,
2013-03-09 05:15:00,33.1,32.1,29.86,South,178,4.0,12.0,96,0.08,,SKC,0.27,0.00,VWS V14.00,2013-03-09 11:15:00,
2013-03-09 05:20:00,33.1,32.1,29.87,South,183,2.0,7.0,96,0.07,,SKC,0.27,0.00,VWS V14.00,2013-03-09 11:20:00,
2013-03-09 05:25:00,33.1,32.1,29.87,South,175,5.0,7.0,96,0.08,,SKC,0.28,0.00,VWS V14.00,2013-03-09 11:25:00,
2013-03-09 05:30:00,33.2,32.2,29.87,South,172,4.0,10.0,96,0.07,,SKC,0.28,0.00,VWS V14.00,2013-03-09 11:30:00,
2013-03-09 05:35:00,33.2,32.2,29.86,South,190,8.0,11.0,96,0.07,,SKC,0.29,0.00,VWS V14.00,2013-03-09 11:35:00,
2013-03-09 05:40:00,33.2,32.2,29.86,SSE,148,7.0,15.0,96,0.07,,SKC,0.29,0.00,VWS V14.00,2013-03-09 11:40:00,
2013-03-09 05:45:00,33.3,32.3,29.86,SSW,192,11.0,12.0,96,0.07,,SKC,0.30,0.00,VWS V14.00,2013-03-09 11:45:00,
2013-03-09 05:50:00,33.3,32.3,29.86,SSW,196,5.0,11.0,96,0.08,,SKC,0.31,0.00,VWS V14.00,2013-03-09 11:50:00,
2013-03-09 05:55:00,33.4,32.4,29.86,South,183,5.0,12.0,96,0.07,,SKC,0.31,0.00,VWS V14.00,2013-03-09 11:55:00,
2013-03-09 06:00:00,33.4,32.4,29.85,South,172,9.0,10.0,96,0.08,,SKC,0.32,0.00,VWS V14.00,2013-03-09 12:00:00,
2013-03-09 06:05:00,33.4,32.4,29.85,SSW,205,3.0,10.0,96,0.07,,SKC,0.32,0.00,VWS V14.00,2013-03-09 12:05:00,
2013-03-09 06:10:00,33.4,32.4,29.84,South,181,8.0,11.0,96,0.08,,SKC,0.33,0.00,VWS V14.00,2013-03-09 12:10:00,
2013-03-09 06:15:00,33.5,32.5,29.84,South,186,6.0,12.0,96,0.08,,SKC,0.34,0.00,VWS V14.00,2013-03-09 12:15:00,
2013-03-09 06:20:00,33.5,32.5,29.84,South,171,6.0,12.0,96,0.08,,SKC,0.35,0.00,VWS V14.00,2013-03-09 12:20:00,
2013-03-09 06:25:00,33.6,32.6,29.83,South,175,10.0,14.0,96,0.09,,SKC,0.36,0.00,VWS V14.00,2013-03-09 12:25:00,
2013-03-09 06:30:00,33.6,32.6,29.83,SSW,206,7.0,14.0,96,0.08,,SKC,0.36,0.00,VWS V14.00,2013-03-09 12:30:00,
2013-03-09 06:35:00,33.6,32.6,29.83,South,188,11.0,12.0,96,0.09,,SKC,0.37,0.00,VWS V14.00,2013-03-09 12:35:00,
2013-03-09 06:40:00,33.6,32.6,29.83,South,178,7.0,12.0,96,0.09,,SKC,0.38,0.00,VWS V14.00,2013-03-09 12:40:00,
2013-03-09 06:45:00,33.6,32.6,29.82,SSW,196,5.0,12.0,96,0.10,,SKC,0.39,0.00,VWS V14.00,2013-03-09 12:45:00,
2013-03-09 06:50:00,33.7,32.7,29.82,SSW,212,9.0,13.0,96,0.09,,SKC,0.39,0.00,VWS V14.00,2013-03-09 12:50:00,
2013-03-09 06:55:00,33.6,32.6,29.82,SSW,201,11.0,14.0,96,0.09,,SKC,0.40,0.00,VWS V14.00,2013-03-09 12:55:00,
2013-03-09 07:00:00,33.6,32.6,29.82,SSW,201,11.0,11.0,96,0.09,,SKC,0.40,0.00,VWS V14.00,2013-03-09 13:00:00,
2013-03-09 07:05:00,33.6,32.6,29.82,SSW,201,11.0,11.0,96,0.08,,SKC,0.40,0.00,VWS V14.00,2013-03-09 13:05:00,
2013-03-09 07:10:00,33.6,32.6,29.82,SSW,201,11.0,11.0,96,0.08,,SKC,0.40,0.00,VWS V14.00,2013-03-09 13:10:00,
2013-03-09 07:15:00,33.6,32.6,29.82,SSW,201,11.0,11.0,96,0.07,,SKC,0.40,0.00,VWS V14.00,2013-03-09 13:15:00,
2013-03-09 07:20:00,33.6,32.6,29.82,SSW,201,11.0,11.0,96,0.06,,SKC,0.40,0.00,VWS V14.00,2013-03-09 13:20:00,
2013-03-09 07:25:00,33.6,32.6,29.82,SSW,201,11.0,11.0,96,0.05,,SKC,0.40,0.00,VWS V14.00,2013-03-09 13:25:00,
2013-03-09 07:30:00,33.6,32.6,29.81,SSW,201,11.0,11.0,96,0.04,,SKC,0.40,0.00,VWS V14.00,2013-03-09 13:30:00,
2013-03-09 07:35:00,33.6,32.6,29.81,SSW,201,11.0,11.0,96,0.04,,SKC,0.40,0.00,VWS V14.00,2013-03-09 13:35:00,
2013-03-09 07:40:00,33.6,32.6,29.81,SSW,201,11.0,11.0,96,0.03,,SKC,0.40,0.00,VWS V14.00,2013-03-09 13:40:00,
2013-03-09 07:45:00,33.6,32.6,29.81,SSW,201,11.0,11.0,96,0.02,,SKC,0.40,0.00,VWS V14.00,2013-03-09 13:45:00,
2013-03-09 07:50:00,33.6,32.6,29.80,SSW,201,11.0,11.0,96,0.01,,SKC,0.40,0.00,VWS V14.00,2013-03-09 13:50:00,
2013-03-09 07:55:00,33.6,32.6,29.79,SSW,201,11.0,11.0,96,0.01,,SKC,0.40,0.00,VWS V14.00,2013-03-09 13:55:00,
2013-03-09 08:00:00,33.6,32.6,29.80,SSW,201,11.0,11.0,96,0.00,,SKC,0.40,0.00,VWS V14.00,2013-03-09 14:00:00,
2013-03-09 08:05:00,33.6,32.6,29.80,SSW,201,11.0,11.0,96,0.00,,SKC,0.40,0.00,VWS V14.00,2013-03-09 14:05:00,
2013-03-09 08:10:00,33.6,32.6,29.79,SSW,201,11.0,11.0,96,0.00,,SKC,0.40,0.00,VWS V14.00,2013-03-09 14:10:00,
2013-03-09 08:15:00,33.6,32.6,29.79,SSW,201,11.0,11.0,96,0.00,,SKC,0.40,0.00,VWS V14.00,2013-03-09 14:15:00,
2013-03-09 08:20:00,33.6,32.6,29.79,SSW,201,11.0,11.0,96,0.00,,SKC,0.40,0.00,VWS V14.00,2013-03-09 14:20:00,
2013-03-09 08:25:00,33.6,32.6,29.78,SSW,201,11.0,11.0,96,0.00,,SKC,0.40,0.00,VWS V14.00,2013-03-09 14:25:00,
2013-03-09 08:30:00,33.6,32.6,29.77,SSW,201,11.0,11.0,96,0.00,,SKC,0.40,0.00,VWS V14.00,2013-03-09 14:30:00,
2013-03-09 08:35:00,33.6,32.6,29.77,SSW,201,11.0,11.0,96,0.00,,SKC,0.40,0.00,VWS V14.00,2013-03-09 14:35:00,
2013-03-09 08:40:00,33.6,32.6,29.78,SSW,201,11.0,11.0,96,0.00,,SKC,0.40,0.00,VWS V14.00,2013-03-09 14:40:00,
2013-03-09 08:45:00,33.6,32.6,29.77,SSW,201,11.0,11.0,96,0.00,,SKC,0.40,0.00,VWS V14.00,2013-03-09 14:45:00,
2013-03-09 08:50:00,33.6,32.6,29.77,SSW,201,11.0,11.0,96,0.00,,SKC,0.40,0.00,VWS V14.00,2013-03-09 14:50:00,
2013-03-09 08:55:00,33.6,32.6,29.77,SSW,201,11.0,11.0,96,0.00,,SKC,0.40,0.00,VWS V14.00,2013-03-09 14:55:00,
2013-03-09 09:00:00,33.6,32.6,29.77,SSW,201,11.0,11.0,96,0.00,,SKC,0.40,0.00,VWS V14.00,2013-03-09 15:00:00,
2013-03-09 09:05:00,33.6,32.6,29.77,SSW,201,11.0,11.0,96,0.00,,SKC,0.40,0.00,VWS V14.00,2013-03-09 15:05:00,
2013-03-09 09:10:00,33.6,32.6,29.77,SSW,201,11.0,11.0,96,0.00,,SKC,0.40,0.00,VWS V14.00,2013-03-09 15:10:00,
2013-03-09 09:15:00,33.6,32.6,29.77,SSW,201,11.0,11.0,96,0.00,,SKC,0.40,0.00,VWS V14.00,2013-03-09 15:15:00,
2013-03-09 09:20:00,33.6,32.6,29.77,SSW,201,11.0,11.0,96,0.00,,SKC,0.40,0.00,VWS V14.00,2013-03-09 15:20:00,
2013-03-09 09:25:00,33.6,32.6,29.77,SSW,201,11.0,11.0,96,0.00,,SKC,0.40,0.00,VWS V14.00,2013-03-09 15:25:00,
2013-03-09 09:30:00,33.6,32.6,29.76,SSW,201,11.0,11.0,96,0.00,,SKC,0.40,0.00,VWS V14.00,2013-03-09 15:30:00,
2013-03-09 09:35:00,33.6,32.6,29.76,SSW,201,11.0,11.0,96,0.00,,SKC,0.40,0.00,VWS V14.00,2013-03-09 15:35:00,
2013-03-09 09:40:00,33.6,32.6,29.76,SSW,201,11.0,11.0,96,0.00,,SKC,0.40,0.00,VWS V14.00,2013-03-09 15:40:00,
2013-03-09 09:45:00,33.6,32.6,29.76,SSW,201,11.0,11.0,96,0.00,,SKC,0.40,0.00,VWS V14.00,2013-03-09 15:45:00,
2013-03-09 09:50:00,33.6,32.6,29.76,SSW,201,11.0,11.0,96,0.00,,SKC,0.40,0.00,VWS V14.00,2013-03-09 15:50:00,
2013-03-09 09:55:00,33.6,32.6,29.76,SSW,201,11.0,11.0,96,0.00,,SKC,0.40,0.00,VWS V14.00,2013-03-09 15:55:00,
2013-03-09 10:00:00,33.6,32.6,29.75,SSW,201,11.0,11.0,96,0.00,,SKC,0.40,0.00,VWS V14.00,2013-03-09 16:00:00,
2013-03-09 10:05:00,33.6,32.6,29.75,SSW,201,11.0,11.0,96,0.00,,SKC,0.40,0.00,VWS V14.00,2013-03-09 16:05:00,
2013-03-09 10:10:00,33.6,32.6,29.75,SSW,201,11.0,11.0,96,0.00,,SKC,0.40,0.00,VWS V14.00,2013-03-09 16:10:00,
2013-03-09 10:15:00,33.6,32.6,29.75,SSW,201,11.0,11.0,96,0.00,,SKC,0.40,0.00,VWS V14.00,2013-03-09 16:15:00,
2013-03-09 10:20:00,33.6,32.6,29.75,SSW,201,11.0,11.0,96,0.00,,SKC,0.40,0.00,VWS V14.00,2013-03-09 16:20:00,
2013-03-09 10:25:00,34.2,33.2,29.75,SSW,193,6.0,11.0,96,0.00,,SKC,0.40,0.00,VWS V14.00,2013-03-09 16:25:00,
2013-03-09 10:30:00,34.2,33.4,29.75,South,171,7.0,12.0,97,0.16,,SKC,0.56,49.00,VWS V14.00,2013-03-09 16:30:00,
2013-03-09 10:35:00,34.3,33.5,29.75,SSW,202,5.0,7.0,97,0.16,,SKC,0.56,58.00,VWS V14.00,2013-03-09 16:35:00,
2013-03-09 10:40:00,34.3,33.5,29.75,South,187,7.0,11.0,97,0.16,,SKC,0.56,51.00,VWS V14.00,2013-03-09 16:40:00,
2013-03-09 10:45:00,34.3,33.5,29.74,SSW,198,4.0,9.0,97,0.17,,SKC,0.57,58.00,VWS V14.00,2013-03-09 16:45:00,
2013-03-09 10:50:00,34.4,33.6,29.74,SSE,168,5.0,10.0,97,0.17,,SKC,0.57,62.00,VWS V14.00,2013-03-09 16:50:00,
2013-03-09 10:55:00,34.4,33.6,29.74,SSE,155,5.0,9.0,97,0.17,,SKC,0.57,51.00,VWS V14.00,2013-03-09 16:55:00,
2013-03-09 11:00:00,34.4,33.6,29.74,South,187,9.0,9.0,97,0.18,,SKC,0.58,44.00,VWS V14.00,2013-03-09 17:00:00,
2013-03-09 11:05:00,34.4,33.6,29.73,South,186,3.0,9.0,97,0.18,,SKC,0.58,49.00,VWS V14.00,2013-03-09 17:05:00,
2013-03-09 11:10:00,34.4,33.6,29.73,SSE,162,8.0,9.0,97,0.19,,SKC,0.59,46.00,VWS V14.00,2013-03-09 17:10:00,
2013-03-09 11:15:00,34.4,33.6,29.73,SSE,157,5.0,8.0,97,0.19,,SKC,0.59,49.00,VWS V14.00,2013-03-09 17:15:00,
2013-03-09 11:20:00,34.4,33.6,29.73,South,177,3.0,7.0,97,0.19,,SKC,0.59,42.00,VWS V14.00,2013-03-09 17:20:00,
2013-03-09 11:25:00,34.4,33.6,29.73,SSE,165,2.0,10.0,97,0.20,,SKC,0.60,49.00,VWS V14.00,2013-03-09 17:25:00,
2013-03-09 11:30:00,34.4,33.6,29.73,SSE,152,7.0,9.0,97,0.20,,SKC,0.60,51.00,VWS V14.00,2013-03-09 17:30:00,
2013-03-09 11:35:00,34.4,33.6,29.73,SSE,152,6.0,7.0,97,0.05,,SKC,0.61,47.00,VWS V14.00,2013-03-09 17:35:00,
2013-03-09 11:40:00,34.4,33.6,29.73,SSE,159,4.0,6.0,97,0.05,,SKC,0.61,47.00,VWS V14.00,2013-03-09 17:40:00,
2013-03-09 11:45:00,34.4,33.4,29.73,SSW,192,3.0,7.0,96,0.06,,SKC,0.62,30.00,VWS V14.00,2013-03-09 17:45:00,
2013-03-09 11:50:00,34.4,33.6,29.73,South,186,1.0,7.0,97,0.05,,SKC,0.62,37.00,VWS V14.00,2013-03-09 17:50:00,
2013-03-09 11:55:00,34.4,33.6,29.74,South,191,4.0,5.0,97,0.06,,SKC,0.63,35.00,VWS V14.00,2013-03-09 17:55:00,
2013-03-09 12:00:00,34.4,33.6,29.73,SSW,200,2.0,5.0,97,0.06,,SKC,0.63,39.00,VWS V14.00,2013-03-09 18:00:00,
2013-03-09 12:05:00,34.4,33.6,29.72,SSE,153,2.0,5.0,97,0.06,,SKC,0.64,56.00,VWS V14.00,2013-03-09 18:05:00,
2013-03-09 12:10:00,34.4,33.4,29.72,SSE,153,4.0,7.0,96,0.06,,SKC,0.64,83.00,VWS V14.00,2013-03-09 18:10:00,
2013-03-09 12:15:00,34.4,33.6,29.72,South,170,3.0,4.0,97,0.06,,SKC,0.65,79.00,VWS V14.00,2013-03-09 18:15:00,
2013-03-09 12:20:00,34.5,33.5,29.71,ESE,119,6.0,6.0,96,0.06,,SKC,0.65,93.00,VWS V14.00,2013-03-09 18:20:00,
2013-03-09 12:24:00,34.6,33.6,29.71,SSE,160,5.0,6.0,96,0.07,,SKC,0.66,111.00,VWS V14.00,2013-03-09 18:24:00,
2013-03-09 12:29:00,34.6,33.6,29.72,South,181,3.0,3.0,96,0.06,,SKC,0.66,63.00,VWS V14.00,2013-03-09 18:29:00,
2013-03-09 12:35:00,34.6,33.6,29.72,SE,146,2.0,3.0,96,0.07,,SKC,0.67,63.00,VWS V14.00,2013-03-09 18:35:00,
2013-03-09 12:40:00,34.7,33.9,29.72,SE,144,2.0,4.0,97,0.06,,SKC,0.67,40.00,VWS V14.00,2013-03-09 18:40:00,
2013-03-09 12:45:00,34.6,33.8,29.71,SSE,151,3.0,4.0,97,0.07,,SKC,0.68,65.00,VWS V14.00,2013-03-09 18:45:00,
2013-03-09 12:50:00,34.6,33.8,29.71,SE,146,4.0,6.0,97,0.07,,SKC,0.69,51.00,VWS V14.00,2013-03-09 18:50:00,
2013-03-09 12:55:00,34.6,33.6,29.71,SE,144,3.0,5.0,96,0.07,,SKC,0.69,51.00,VWS V14.00,2013-03-09 18:55:00,
2013-03-09 13:00:00,34.6,33.6,29.71,SSE,156,4.0,6.0,96,0.07,,SKC,0.70,39.00,VWS V14.00,2013-03-09 19:00:00,
2013-03-09 13:05:00,34.6,33.6,29.70,SSE,160,5.0,7.0,96,0.07,,SKC,0.70,56.00,VWS V14.00,2013-03-09 19:05:00,
2013-03-09 13:10:00,34.5,33.5,29.70,SSE,161,4.0,8.0,96,0.07,,SKC,0.71,97.00,VWS V14.00,2013-03-09 19:10:00,
2013-03-09 13:15:00,34.5,33.5,29.70,SE,129,6.0,8.0,96,0.07,,SKC,0.71,98.00,VWS V14.00,2013-03-09 19:15:00,
2013-03-09 13:20:00,34.4,33.4,29.69,SSE,157,5.0,6.0,96,0.07,,SKC,0.72,86.00,VWS V14.00,2013-03-09 19:20:00,
2013-03-09 13:25:00,34.5,33.5,29.69,SSE,164,4.0,6.0,96,0.08,,SKC,0.73,95.00,VWS V14.00,2013-03-09 19:25:00,
2013-03-09 13:30:00,34.5,33.5,29.69,South,171,3.0,5.0,96,0.07,,SKC,0.73,74.00,VWS V14.00,2013-03-09 19:30:00,
2013-03-09 13:35:00,34.6,33.6,29.69,South,171,2.0,4.0,96,0.07,,SKC,0.74,60.00,VWS V14.00,2013-03-09 19:35:00,
2013-03-09 13:40:00,34.6,33.6,29.67,SE,139,3.0,6.0,96,0.08,,SKC,0.75,65.00,VWS V14.00,2013-03-09 19:40:00,
2013-03-09 13:45:00,34.7,33.7,29.67,SE,129,1.0,2.0,96,0.07,,SKC,0.75,58.00,VWS V14.00,2013-03-09 19:45:00,
2013-03-09 13:50:00,34.7,33.7,29.67,SE,132,2.0,4.0,96,0.08,,SKC,0.76,70.00,VWS V14.00,2013-03-09 19:50:00,
2013-03-09 13:55:00,34.8,33.8,29.66,SE,133,4.0,6.0,96,0.07,,SKC,0.76,135.00,VWS V14.00,2013-03-09 19:55:00,
2013-03-09 14:00:00,34.8,34.0,29.66,SSE,148,3.0,9.0,97,0.08,,SKC,0.77,204.00,VWS V14.00,2013-03-09 20:00:00,
2013-03-09 14:05:00,35.0,34.2,29.66,SSE,154,4.0,4.0,97,0.08,,SKC,0.78,188.00,VWS V14.00,2013-03-09 20:05:00,
2013-03-09 14:10:00,35.1,34.3,29.66,ESE,105,1.0,4.0,97,0.07,,SKC,0.78,102.00,VWS V14.00,2013-03-09 20:10:00,
2013-03-09 14:15:00,35.0,34.2,29.67,SSE,167,4.0,7.0,97,0.08,,SKC,0.79,93.00,VWS V14.00,2013-03-09 20:15:00,
2013-03-09 14:20:00,34.9,34.1,29.67,SE,143,5.0,7.0,97,0.07,,SKC,0.79,74.00,VWS V14.00,2013-03-09 20:20:00,
2013-03-09 14:25:00,34.9,34.1,29.67,SE,142,1.0,4.0,97,0.07,,SKC,0.80,58.00,VWS V14.00,2013-03-09 20:25:00,
2013-03-09 14:30:00,34.8,34.0,29.66,SSE,166,2.0,4.0,97,0.08,,SKC,0.81,51.00,VWS V14.00,2013-03-09 20:30:00,
2013-03-09 14:35:00,34.8,34.0,29.66,SE,125,2.0,5.0,97,0.07,,SKC,0.81,42.00,VWS V14.00,2013-03-09 20:35:00,
2013-03-09 14:40:00,34.7,33.9,29.66,SSE,153,4.0,6.0,97,0.08,,SKC,0.82,44.00,VWS V14.00,2013-03-09 20:40:00,
2013-03-09 14:45:00,34.6,33.8,29.67,SSE,161,1.0,4.0,97,0.07,,SKC,0.82,53.00,VWS V14.00,2013-03-09 20:45:00,
2013-03-09 14:50:00,34.6,33.6,29.67,SSE,156,3.0,4.0,96,0.08,,SKC,0.83,77.00,VWS V14.00,2013-03-09 20:50:00,
2013-03-09 14:55:00,34.6,33.6,29.67,SSE,157,3.0,4.0,96,0.08,,SKC,0.84,56.00,VWS V14.00,2013-03-09 20:55:00,
2013-03-09 15:00:00,34.6,33.6,29.67,SSE,154,3.0,4.0,96,0.07,,SKC,0.84,54.00,VWS V14.00,2013-03-09 21:00:00,
2013-03-09 15:05:00,34.6,33.6,29.67,South,170,4.0,6.0,96,0.08,,SKC,0.85,65.00,VWS V14.00,2013-03-09 21:05:00,
2013-03-09 15:11:00,34.5,33.5,29.67,SSE,148,2.0,2.0,96,0.07,,SKC,0.85,77.00,VWS V14.00,2013-03-09 21:11:00,
2013-03-09 15:16:00,34.4,33.4,29.66,ESE,106,1.0,3.0,96,0.07,,SKC,0.86,118.00,VWS V14.00,2013-03-09 21:16:00,
2013-03-09 15:21:00,34.4,33.4,29.65,SE,138,6.0,6.0,96,0.07,,SKC,0.86,118.00,VWS V14.00,2013-03-09 21:21:00,
2013-03-09 15:26:00,34.6,33.6,29.65,SSE,157,3.0,4.0,96,0.07,,SKC,0.87,153.00,VWS V14.00,2013-03-09 21:26:00,
2013-03-09 15:31:00,34.6,33.6,29.66,ESE,106,2.0,4.0,96,0.07,,SKC,0.87,91.00,VWS V14.00,2013-03-09 21:31:00,
2013-03-09 15:36:00,34.7,33.7,29.66,SE,131,0.0,3.0,96,0.07,,SKC,0.88,83.00,VWS V14.00,2013-03-09 21:36:00,
2013-03-09 15:41:00,34.7,33.7,29.66,East,96,0.0,3.0,96,0.07,,SKC,0.88,54.00,VWS V14.00,2013-03-09 21:41:00,
2013-03-09 15:46:00,34.6,33.8,29.67,ESE,121,2.0,3.0,97,0.07,,SKC,0.89,46.00,VWS V14.00,2013-03-09 21:46:00,
2013-03-09 15:51:00,34.5,33.5,29.67,ESE,123,1.0,5.0,96,0.06,,SKC,0.89,49.00,VWS V14.00,2013-03-09 21:51:00,
2013-03-09 15:56:00,34.5,33.5,29.67,SSE,151,3.0,4.0,96,0.07,,SKC,0.90,49.00,VWS V14.00,2013-03-09 21:56:00,
2013-03-09 16:01:00,34.5,33.5,29.67,SSE,150,0.0,4.0,96,0.06,,SKC,0.90,49.00,VWS V14.00,2013-03-09 22:01:00,
2013-03-09 16:06:00,34.5,33.5,29.67,SSE,150,0.0,0.0,96,0.07,,SKC,0.91,51.00,VWS V14.00,2013-03-09 22:06:00,
2013-03-09 16:11:00,34.6,33.8,29.67,SSE,150,0.0,2.0,97,0.06,,SKC,0.91,42.00,VWS V14.00,2013-03-09 22:11:00,
2013-03-09 16:16:00,34.6,33.8,29.66,SSE,150,1.0,2.0,97,0.07,,SKC,0.92,49.00,VWS V14.00,2013-03-09 22:16:00,
2013-03-09 16:21:00,34.6,33.8,29.67,SSE,150,0.0,1.0,97,0.06,,SKC,0.92,30.00,VWS V14.00,2013-03-09 22:21:00,
2013-03-09 16:26:00,34.6,33.8,29.66,SSE,150,0.0,0.0,97,0.07,,SKC,0.93,30.00,VWS V14.00,2013-03-09 22:26:00,
2013-03-09 16:31:00,34.6,33.8,29.67,SSE,150,1.0,1.0,97,0.06,,SKC,0.93,28.00,VWS V14.00,2013-03-09 22:31:00,
2013-03-09 16:36:00,34.6,33.8,29.66,SSE,150,0.0,1.0,97,0.07,,SKC,0.94,26.00,VWS V14.00,2013-03-09 22:36:00,
2013-03-09 16:41:00,34.6,33.6,29.67,SSE,150,1.0,1.0,96,0.06,,SKC,0.94,28.00,VWS V14.00,2013-03-09 22:41:00,
2013-03-09 16:46:00,34.6,33.8,29.67,SSE,150,0.0,1.0,97,0.05,,SKC,0.94,25.00,VWS V14.00,2013-03-09 22:46:00,
2013-03-09 16:51:00,34.5,33.5,29.67,SSE,150,0.0,1.0,96,0.06,,SKC,0.95,30.00,VWS V14.00,2013-03-09 22:51:00,
2013-03-09 16:56:00,34.4,33.6,29.67,SSE,150,1.0,1.0,97,0.05,,SKC,0.95,19.00,VWS V14.00,2013-03-09 22:56:00,
2013-03-09 17:01:00,34.4,33.6,29.68,SSE,150,0.0,1.0,97,0.06,,SKC,0.96,25.00,VWS V14.00,2013-03-09 23:01:00,
2013-03-09 17:06:00,34.3,33.5,29.68,SSE,150,0.0,2.0,97,0.05,,SKC,0.96,14.00,VWS V14.00,2013-03-09 23:06:00,
2013-03-09 17:11:00,34.3,33.5,29.68,SSE,150,0.0,0.0,97,0.06,,SKC,0.97,16.00,VWS V14.00,2013-03-09 23:11:00,
2013-03-09 17:16:00,34.2,33.4,29.69,SSE,150,0.0,1.0,97,0.05,,SKC,0.97,19.00,VWS V14.00,2013-03-09 23:16:00,
2013-03-09 17:21:00,34.1,33.1,29.69,SSE,150,0.0,0.0,96,0.05,,SKC,0.97,26.00,VWS V14.00,2013-03-09 23:21:00,
2013-03-09 17:26:00,34.0,33.0,29.69,SSE,150,1.0,1.0,96,0.06,,SKC,0.98,19.00,VWS V14.00,2013-03-09 23:26:00,
2013-03-09 17:31:00,33.9,32.9,29.69,SSE,150,0.0,1.0,96,0.05,,SKC,0.98,5.00,VWS V14.00,2013-03-09 23:31:00,
2013-03-09 17:36:00,33.8,32.8,29.69,SSE,150,0.0,0.0,96,0.05,,SKC,0.98,11.00,VWS V14.00,2013-03-09 23:36:00,
2013-03-09 17:41:00,33.7,32.7,29.69,SSE,150,0.0,0.0,96,0.05,,SKC,0.99,12.00,VWS V14.00,2013-03-09 23:41:00,
2013-03-09 17:46:00,33.6,32.6,29.69,SSE,150,2.0,2.0,96,0.05,,SKC,0.99,11.00,VWS V14.00,2013-03-09 23:46:00,
2013-03-09 17:51:00,33.6,32.6,29.69,SSE,150,1.0,1.0,96,0.04,,SKC,0.99,5.00,VWS V14.00,2013-03-09 23:51:00,
2013-03-09 17:56:00,33.5,32.5,29.70,SE,146,1.0,2.0,96,0.04,,SKC,0.99,5.00,VWS V14.00,2013-03-09 23:56:00,
2013-03-09 18:01:00,33.4,32.4,29.70,NNW,345,2.0,3.0,96,0.05,,SKC,1.00,5.00,VWS V14.00,2013-03-10 00:01:00,
2013-03-09 18:06:00,33.4,32.4,29.69,NNW,345,1.0,3.0,96,0.04,,SKC,1.00,0.00,VWS V14.00,2013-03-10 00:06:00,
2013-03-09 18:11:00,33.3,32.3,29.70,NNE,15,1.0,4.0,96,0.04,,SKC,1.00,0.00,VWS V14.00,2013-03-10 00:11:00,
2013-03-09 18:16:00,33.2,32.2,29.70,NNE,15,2.0,3.0,96,0.04,,SKC,1.01,0.00,VWS V14.00,2013-03-10 00:16:00,
2013-03-09 18:21:00,33.2,32.4,29.70,NNE,15,2.0,2.0,97,0.04,,SKC,1.01,0.00,VWS V14.00,2013-03-10 00:21:00,
2013-03-09 18:27:00,33.2,32.4,29.71,NNE,15,2.0,3.0,97,0.04,,SKC,1.01,0.00,VWS V14.00,2013-03-10 00:27:00,
2013-03-09 18:32:00,33.1,32.3,29.70,NNE,15,2.0,3.0,97,0.03,,SKC,1.01,0.00,VWS V14.00,2013-03-10 00:32:00,
2013-03-09 18:37:00,33.0,32.2,29.71,NNE,18,1.0,4.0,97,0.04,,SKC,1.02,0.00,VWS V14.00,2013-03-10 00:37:00,
2013-03-09 18:42:00,33.0,32.0,29.70,NNE,18,1.0,3.0,96,0.04,,SKC,1.02,0.00,VWS V14.00,2013-03-10 00:42:00,
2013-03-09 18:47:00,33.0,32.2,29.71,NNE,22,1.0,7.0,97,0.03,,SKC,1.02,0.00,VWS V14.00,2013-03-10 00:47:00,
2013-03-09 18:52:00,33.0,32.2,29.71,NNE,22,2.0,3.0,97,0.03,,SKC,1.02,0.00,VWS V14.00,2013-03-10 00:52:00,
2013-03-09 18:57:00,32.9,32.1,29.71,NNE,22,2.0,5.0,97,0.04,,SKC,1.03,0.00,VWS V14.00,2013-03-10 00:57:00,
2013-03-09 19:02:00,32.9,32.1,29.71,NNE,32,2.0,10.0,97,0.03,,SKC,1.03,0.00,VWS V14.00,2013-03-10 01:02:00,
2013-03-09 19:07:00,32.9,32.1,29.71,North,355,3.0,4.0,97,0.03,,SKC,1.03,0.00,VWS V14.00,2013-03-10 01:07:00,
2013-03-09 19:12:00,32.9,32.1,29.72,NNE,13,3.0,4.0,97,0.03,,SKC,1.03,0.00,VWS V14.00,2013-03-10 01:12:00,
2013-03-09 19:17:00,32.9,32.1,29.72,NNE,13,3.0,4.0,97,0.03,,SKC,1.03,0.00,VWS V14.00,2013-03-10 01:17:00,
2013-03-09 19:22:00,32.9,32.1,29.72,NNE,13,4.0,4.0,97,0.03,,SKC,1.04,0.00,VWS V14.00,2013-03-10 01:22:00,
2013-03-09 19:27:00,32.9,32.1,29.72,North,360,5.0,5.0,97,0.03,,SKC,1.04,0.00,VWS V14.00,2013-03-10 01:27:00,
2013-03-09 19:32:00,32.9,32.1,29.72,NNE,22,4.0,6.0,97,0.03,,SKC,1.04,0.00,VWS V14.00,2013-03-10 01:32:00,
2013-03-09 19:37:00,32.9,32.1,29.72,NE,38,4.0,5.0,97,0.02,,SKC,1.04,0.00,VWS V14.00,2013-03-10 01:37:00,
2013-03-09 19:42:00,32.9,32.1,29.73,NE,38,4.0,4.0,97,0.02,,SKC,1.04,0.00,VWS V14.00,2013-03-10 01:42:00,
2013-03-09 19:47:00,32.9,32.1,29.73,NE,34,4.0,7.0,97,0.02,,SKC,1.04,0.00,VWS V14.00,2013-03-10 01:47:00,
2013-03-09 19:52:00,32.9,32.1,29.73,NNE,17,3.0,6.0,97,0.02,,SKC,1.04,0.00,VWS V14.00,2013-03-10 01:52:00,
2013-03-09 19:57:00,32.9,32.1,29.72,NE,34,3.0,9.0,97,0.01,,SKC,1.04,0.00,VWS V14.00,2013-03-10 01:57:00,
2013-03-09 20:02:00,32.9,32.1,29.72,NE,44,3.0,6.0,97,0.01,,SKC,1.04,0.00,VWS V14.00,2013-03-10 02:02:00,
2013-03-09 20:07:00,32.9,32.1,29.72,North,355,3.0,6.0,97,0.01,,SKC,1.04,0.00,VWS V14.00,2013-03-10 02:07:00,
2013-03-09 20:12:00,32.9,32.1,29.73,NNE,27,4.0,6.0,97,0.01,,SKC,1.04,0.00,VWS V14.00,2013-03-10 02:12:00,
2013-03-09 20:17:00,32.9,32.1,29.73,NNE,31,9.0,9.0,97,0.01,,SKC,1.04,0.00,VWS V14.00,2013-03-10 02:17:00,
2013-03-09 20:22:00,32.9,32.1,29.73,NNE,22,4.0,5.0,97,0.01,,SKC,1.04,0.00,VWS V14.00,2013-03-10 02:22:00,
2013-03-09 20:27:00,32.9,32.1,29.73,NNE,25,4.0,5.0,97,0.00,,SKC,1.04,0.00,VWS V14.00,2013-03-10 02:27:00,
2013-03-09 20:32:00,32.9,32.1,29.73,NE,44,8.0,8.0,97,0.00,,SKC,1.04,0.00,VWS V14.00,2013-03-10 02:32:00,
2013-03-09 20:37:00,32.9,32.1,29.73,NNW,346,6.0,6.0,97,0.00,,SKC,1.04,0.00,VWS V14.00,2013-03-10 02:37:00,
2013-03-09 20:42:00,33.0,32.2,29.74,NE,46,4.0,10.0,97,0.00,,SKC,1.04,0.00,VWS V14.00,2013-03-10 02:42:00,
2013-03-09 20:47:00,33.0,32.2,29.74,NNE,28,3.0,7.0,97,0.00,,SKC,1.04,0.00,VWS V14.00,2013-03-10 02:47:00,
2013-03-09 20:52:00,33.0,32.2,29.75,NNE,33,3.0,8.0,97,0.00,,SKC,1.04,0.00,VWS V14.00,2013-03-10 02:52:00,
2013-03-09 20:57:00,33.0,32.2,29.75,NNE,30,2.0,6.0,97,0.00,,SKC,1.04,0.00,VWS V14.00,2013-03-10 02:57:00,
2013-03-09 21:03:00,33.1,32.3,29.76,NNE,28,6.0,9.0,97,0.00,,SKC,1.04,0.00,VWS V14.00,2013-03-10 03:03:00,
2013-03-09 21:08:00,33.1,32.3,29.76,NNE,24,3.0,6.0,97,0.00,,SKC,1.04,0.00,VWS V14.00,2013-03-10 03:08:00,
2013-03-09 21:13:00,33.1,32.3,29.77,NNE,28,4.0,6.0,97,0.00,,SKC,1.04,0.00,VWS V14.00,2013-03-10 03:13:00,
2013-03-09 21:18:00,33.1,32.3,29.76,NNE,30,4.0,6.0,97,0.00,,SKC,1.04,0.00,VWS V14.00,2013-03-10 03:18:00,
2013-03-09 21:23:00,33.1,32.3,29.76,NNE,24,3.0,9.0,97,0.00,,SKC,1.04,0.00,VWS V14.00,2013-03-10 03:23:00,
2013-03-09 21:28:00,33.1,32.3,29.77,NE,40,3.0,10.0,97,0.00,,SKC,1.04,0.00,VWS V14.00,2013-03-10 03:28:00,
2013-03-09 21:33:00,33.2,32.4,29.77,NE,38,4.0,12.0,97,0.00,,SKC,1.04,0.00,VWS V14.00,2013-03-10 03:33:00,
2013-03-09 21:38:00,33.2,32.4,29.77,NNE,14,4.0,4.0,97,0.00,,SKC,1.04,0.00,VWS V14.00,2013-03-10 03:38:00,
2013-03-09 21:43:00,33.1,32.3,29.77,NE,34,5.0,7.0,97,0.00,,SKC,1.04,0.00,VWS V14.00,2013-03-10 03:43:00,
2013-03-09 21:48:00,33.1,32.3,29.78,NE,45,3.0,9.0,97,0.00,,SKC,1.04,0.00,VWS V14.00,2013-03-10 03:48:00,
2013-03-09 21:53:00,33.1,32.3,29.78,NNE,15,3.0,7.0,97,0.00,,SKC,1.04,0.00,VWS V14.00,2013-03-10 03:53:00,
2013-03-09 21:58:00,33.2,32.4,29.79,NNE,28,4.0,6.0,97,0.00,,SKC,1.04,0.00,VWS V14.00,2013-03-10 03:58:00,
2013-03-09 22:03:00,33.2,32.2,29.79,North,5,3.0,7.0,96,0.00,,SKC,1.04,0.00,VWS V14.00,2013-03-10 04:03:00,
2013-03-09 22:08:00,33.1,32.1,29.79,NNE,29,5.0,7.0,96,0.00,,SKC,1.04,0.00,VWS V14.00,2013-03-10 04:08:00,
2013-03-09 22:13:00,33.2,32.2,29.79,NNE,15,5.0,9.0,96,0.00,,SKC,1.04,0.00,VWS V14.00,2013-03-10 04:13:00,
2013-03-09 22:18:00,33.1,32.1,29.79,NNE,31,3.0,6.0,96,0.00,,SKC,1.04,0.00,VWS V14.00,2013-03-10 04:18:00,
2013-03-09 22:23:00,33.2,32.2,29.79,NE,53,6.0,7.0,96,0.00,,SKC,1.04,0.00,VWS V14.00,2013-03-10 04:23:00,
2013-03-09 22:28:00,33.2,32.2,29.79,NE,38,3.0,9.0,96,0.00,,SKC,1.04,0.00,VWS V14.00,2013-03-10 04:28:00,
2013-03-09 22:33:00,33.1,32.1,29.80,NNE,30,3.0,6.0,96,0.00,,SKC,1.04,0.00,VWS V14.00,2013-03-10 04:33:00,
2013-03-09 22:38:00,33.1,32.1,29.80,NE,40,3.0,9.0,96,0.00,,SKC,1.04,0.00,VWS V14.00,2013-03-10 04:38:00,
2013-03-09 22:43:00,33.1,32.1,29.80,NE,40,5.0,9.0,96,0.00,,SKC,1.04,0.00,VWS V14.00,2013-03-10 04:43:00,
2013-03-09 22:48:00,33.1,31.8,29.81,NNE,22,3.0,6.0,95,0.00,,SKC,1.04,0.00,VWS V14.00,2013-03-10 04:48:00,
2013-03-09 22:53:00,33.1,31.8,29.80,NW,323,3.0,12.0,95,0.00,,SKC,1.04,0.00,VWS V14.00,2013-03-10 04:53:00,
2013-03-09 22:58:00,33.1,31.8,29.80,NE,36,5.0,7.0,95,0.00,,SKC,1.04,0.00,VWS V14.00,2013-03-10 04:58:00,
2013-03-09 23:00:00,33.1,31.8,29.80,NNE,18,3.0,5.0,95,0.00,,SKC,1.04,0.00,VWS V14.00,2013-03-10 05:00:00,
2013-03-09 23:02:00,33.1,31.8,29.81,NNE,20,6.0,6.0,95,0.00,,SKC,1.04,0.00,VWS V14.00,2013-03-10 05:02:00,
2013-03-09 23:03:00,33.1,31.8,29.81,NE,40,2.0,5.0,95,0.00,,SKC,1.04,0.00,VWS V14.00,2013-03-10 05:03:00,
2013-03-09 23:08:00,33.1,31.8,29.81,North,351,3.0,4.0,95,0.00,,SKC,1.04,0.00,VWS V14.00,2013-03-10 05:08:00,
2013-03-09 23:13:00,33.1,31.8,29.82,NNE,26,5.0,6.0,95,0.00,,SKC,1.04,0.00,VWS V14.00,2013-03-10 05:13:00,
2013-03-09 23:18:00,33.1,31.6,29.81,NNE,26,2.0,4.0,94,0.00,,SKC,1.04,0.00,VWS V14.00,2013-03-10 05:18:00,
2013-03-09 23:23:00,33.0,31.7,29.82,NNE,26,2.0,4.0,95,0.00,,SKC,1.04,0.00,VWS V14.00,2013-03-10 05:23:00,
2013-03-09 23:28:00,33.0,31.7,29.82,NNE,27,3.0,4.0,95,0.00,,SKC,1.04,0.00,VWS V14.00,2013-03-10 05:28:00,
2013-03-09 23:33:00,33.0,31.5,29.82,NNE,24,7.0,7.0,94,0.00,,SKC,1.04,0.00,VWS V14.00,2013-03-10 05:33:00,
2013-03-09 23:38:00,33.0,31.5,29.81,NNE,24,4.0,6.0,94,0.00,,SKC,1.04,0.00,VWS V14.00,2013-03-10 05:38:00,
2013-03-09 23:43:00,33.0,31.5,29.81,NNE,30,6.0,6.0,94,0.00,,SKC,1.04,0.00,VWS V14.00,2013-03-10 05:43:00,
2013-03-09 23:48:00,33.0,31.5,29.81,NE,34,5.0,5.0,94,0.00,,SKC,1.04,0.00,VWS V14.00,2013-03-10 05:48:00,
2013-03-09 23:54:00,32.9,31.4,29.81,North,360,4.0,6.0,94,0.00,,SKC,1.04,0.00,VWS V14.00,2013-03-10 05:54:00,
2013-03-09 23:59:00,32.8,31.3,29.80,NNE,28,6.0,7.0,94,0.00,,SKC,1.04,0.00,VWS V14.00,2013-03-10 05:59:00,